Location: Banios
(43.0451°N, 0.2335°E)
Time: 08:32:25
(UTC+00:00)

A-11 Canister half - Pass Details

Date: 14 May 2021
Orbit: 1527 x 1681 km, 47.3° (Epoch: 22 June)

Event Time Altitude Azimuth Distance (km) Brightness Sun altitude
Rises 17:04:30 0° 289° (WNW) 4,892 13.0 21.9°
Reaches altitude 10° 17:09:11 10° 271° (W) 3,920 13.3 21.0°
Maximum altitude 17:14:47 17° 236° (WSW) 3,424 11.8 20.0°
Drops below altitude 10° 17:20:25 10° 201° (SSW) 3,934 11.4 19.0°
Sets 17:25:11 0° 183° (S) 4,915 11.6 18.1°
